Погода в Таразе

Погода в Таразе : погода сейчас, прогноз погоды и архив. Всё, что Вы хотите узнать о погоде в Таразе!

Поиск расширенной информации на нашем сайте:

Другие новости

Новости СМИ2

Главная страница сайта

Новости сайта

03.07.2017

Напоминаем, что на нашем специализированном сайте Метеоцентр.Азия вы можете получить высокодетализированные автоматические прогнозы погоды по пунктам России, СНГ и мира в авиационном формате (включающие направление и скорость ветра, видимость, явления погоды, количество и форму облачности, нижнюю и верхнюю границу облачности).


Погода в Таразе - сегодня

Время (UTC), дата Ветер
(°,м/с) 
Видим.   Явления Облачность Т
(°С)
Тd
(°С)
f(%) Тe
(°С)
Pmin
(гПа)
dP
(гПа)
Po
(мм)
O2
(г/м3)
Тmin Tmax R s Состояние
почвы
21 16.06.18 170 (Ю) 10 км    ясно 
+17.2 +9.8 62 +21  1006.1  -1.3  700  263           
00 17.06.18 180 (Ю) 20000 м    ясно 
+17.2 +10 63 +22  1005.4  -0.6  699  263           
06 17.06.18 360 (С) 20000 м    ясно 
+28.1 +9.4 31 +30  1001.2  -1.1  698  253  +16.3         
09 17.06.18 340 (С) 20000 м    4/4 1000 м 
[Cu hum]
+30.8 +8 24 +31  999.6  -0.9  697  251           
12 17.06.18 330 (СЗ) 20000 м    8/8 1000 м 
[Sc diur, vesp]
+30.2 +7.7 24 +30  999.1  -0.6  697  251           
15 17.06.18 тихо ()   20000 м    8/8 600 м кучево-дожд. 
[Cb cap]
+26.6 +9.2 33 +28  1000.4  0.4  697  254    +31.6       
18 17.06.18 220 (ЮЗ) 10 км    4/3 1000 м средняя 
[Sc diur, vesp|Ac lent]
+23.2 +9.2 41 +25  1001.5  0.3  697  257    +31.6       
21 17.06.18 210 (ЮЗ) 10 км    6/3 1000 м средняя 
[Sc diur, vesp|Ac lent]
+21.4 +9.9 48 +24  1001.9  -0.1  697  259           
00 18.06.18 170 (Ю) 20000 м    ясно 
+19.8 +9.9 53 +23  1002.6  0.3  698  260           
06 18.06.18 240 (ЮЗ) 20000 м    ясно 
+32.2 +0.2 13 +32  1002.6  -0.6  697  251  +19.4         
09 18.06.18 260 (З) 20000 м    4/0 средняя, верхняя 
[Ac lent|Ci sp]
+33.9 +2.5 14 +34  998.3  -0.8  697  249           
12 18.06.18 270 (З) 20000 м    9/0 средняя, верхняя 
[Ac lent|Ci sp]
+33.3 +2.7 14 +33  998.3  697  250           
15 18.06.18 230 (ЮЗ) 20000 м    9/6 1000 м верхняя 
[Sc diur, vesp|Ci sp]
+27.6 +3.8 22 +28  1000.3  0.6  697  254    +34.7       
18 18.06.18 360 (С) 10 км    6/4 1000 м средняя 
[Sc diur, vesp|Ac lent]
+25.3 +1.7 21 +25  1002  1.1  698  257    +34.7       
21 18.06.18 230 (ЮЗ) 10 км    ясно 
+18.7 +4.3 39 +20  1004.6  0.9  699  263           
06 19.06.18 050 (СВ) 20000 м    8/3 1000 м верхняя 
[Sc diur, vesp|Ci sp]
+28 +2.1 19 +28  1001.6  -1.4  698  255  +15.8         
09 19.06.18 030 (СВ) 20000 м    9/3 1000 м средняя, верхняя 
[Sc diur, vesp|Ac lent|Ci sp]
+32.1 +1.3 14 +32  999.6  -0.9  698  251           
12 19.06.18 290 (З) 20000 м    10/8 600 м кучево-дожд., средняя 
[Cb cap|Ac lent]
+31 +9.4 26 +33  999.7  698  251           
21 19.06.18 310 (СЗ) 10 км    8/8 1000 м 
[Sc diur, vesp]
+21.3 +6.1 37 +21  1005.3  1.1  700  260           
09 20.06.18 200 (Ю) 20000 м    6/4 600 м кучево-дожд., средняя 
[Cb cap|Ac lent]
+23.7 +13.2 52 +31  1008.7  0.1  703  258           
12 20.06.18 230 (ЮЗ) 20000 м    4/4 1000 м 
[Cu med, cong]
+26.1 +9.4 35 +28  1007.6  -0.6  702  257           
18 20.06.18 170 (Ю) 10 км    ясно 
+20.2 +9 48 +21  1010  0.5  703  262    +26.2  0.4     
21 20.06.18 190 (Ю) 10 км    ясно 
+18.6 +8.8 53 +21  1010.5  703  264           
06 21.06.18 170 (Ю) 20000 м    ясно 
+30.5 -0.9 13 +31  1008.2  -1  703  255  +16.1         
09 21.06.18 тихо ()   20000 м    ясно 
+31.7 -3 10 +32  1006.3  -1.5  702  254           
Время (UTC), дата Ветер
(°,м/с) 
Видим.   Явления Облачность Т
(°С)
Тd
(°С)
f(%) Тe
(°С)
Pmin
(гПа)
dP
(гПа)
Po
(мм)
O2
(г/м3)
Тmin Tmax R s Состояние
почвы

Для получения пояснительной информации подведите курсор к названию столбца.

ПОГОДА в Таразе - архив

Всё, что Вы хотите узнать о погоде в Таразе - удобно и подробно!

Выберите нужную дату (начиная с 1 января 2015* года) и нажмите кнопку "Найти".
Будут отображены архивные сводки погоды по пункту Тараз, начиная с указанной даты.


Отображать данные в формате CSV (для использования в таблицах Excel)


Внимание! Наш архив погоды предназначен исключительно для личного некоммерческого использования в познавательных целях. Если Вам необходимы официальные справки о состоянии погоды (для производственных, юридических, коммерческих и т.п. целей), обращайтесь в органы Росгидромета.

*Примечание: данная дата относится к архиву по метеостанциям СССР (Россия, СНГ, Балтия).
Архив по метеостанциям Зарубежной Европы и Азии (кроме Китая) хранится 10 дней, по другим регионам земного шара (Китай, Африка, Америка, Австралия, Океания) - 1 день.

Тараз - район местоположения метеостанции


Название, широта, долгота, высота метеостанции:
Тараз (город) 42.9°ш. 71.4°д. 651 м над ур. моря [Казахстан]

Дополнительная информация

В oтличие oт бoльшинства пoгoдных сайтoв мы публикуем пoдрoбную метеoинфoрмацию в детальнoм прoфессиoнальнoм фoрмате.

Характеристики температуры и влажнoсти вoздуха измеряются на высoте 2 м в тени вдали oт зданий и деревьев.
Скoрoсть ветра измеряется на высoте 10 м (на урoвне рoста челoвека скoрoсть ветра ниже в 1.5-2 раза). Если метеoстанция нахoдится в гoрoде или в лесу, тo скoрoсть ветра занижена на 2-4 м/с пo сравнению с oткрытым местoм. Скoрoсть ветра над акватoриями крупных рек и oзёр, а также на вершинах хoлмoв на 2-5 м/с выше, чем в oбычных услoвиях.
Атмoсфернoе давление в разных тoчках местнoсти мoжет значительнo oтличаться oт давления на метеoстанции, в зависимoсти oт услoвий рельефа (при пoдъёме на 10 м давление пoнижается примернo на 1 мм рт.ст.).